Temp_Advection
nan nan nan nan nan nan nan nan nan nan nan nan nan nan nan nan nan nan nan nan nan nan nan nan nan nan nan
nan -0 -2 -1 -0 -1 -1 0 -0 -0 1 1 1 0 -0 -1 0 0 -0 -0 0 0 0 0 -0 -0 nan
nan -2 -1 -2 -0 -0 -1 -1 -1 -0 -0 1 1 0 -0 -1 0 0 -0 -0 0 0 0 0 0 -0 nan
nan -3 -2 -1 -1 -1 -1 -1 -1 -0 -0 0 0 1 0 -0 -0 -0 -1 -1 0 0 0 0 0 -0 nan
nan -2 -2 -1 -0 -0 -1 -2 -2 -1 -0 -0 -0 0 1 1 -1 -1 -1 -0 0 0 0 0 0 -0 nan
nan -3 -3 -2 -1 0 -1 -3 -3 -1 -1 -1 -0 0 1 0 -0 -0 -0 -0 -0 0 0 0 0 -0 nan
nan -1 -2 -2 -2 -2 -0 -1 -2 -2 -2 -2 -2 -1 1 1 1 0 -0 -0 -0 0 0 0 -0 0 nan
nan -2 -1 -1 -1 -2 -2 -1 -2 -1 -1 -2 -2 -1 -0 1 1 -0 -0 -0 -0 0 0 0 -0 0 nan
nan -1 -1 -1 -2 -2 -1 -2 -3 -2 -1 -1 -1 -1 -0 0 1 1 0 -1 -1 0 0 0 -0 0 nan
nan -1 -2 -2 -1 0 -1 -2 -1 -2 -1 -1 -1 0 -1 -1 1 1 0 -1 -1 0 1 0 -0 0 nan
nan -2 -2 -2 -2 -2 -0 -1 -1 -1 -1 -1 -2 0 -0 -1 0 1 0 -0 -0 0 1 -0 -0 0 nan
nan -2 -2 -3 -2 -2 -1 -0 -1 -1 -0 -0 -1 -1 -0 -1 -0 0 -0 -1 -1 -0 1 0 -0 0 nan
nan -2 -2 -1 -2 -2 -1 -1 -1 -1 -1 -0 -0 -1 -1 -0 -2 -1 -0 -1 -1 1 1 -0 -0 0 nan
nan -2 -3 -2 -2 -1 -2 -1 -1 -1 -2 -1 0 0 -1 -0 -0 -1 -1 -1 1 2 0 -0 0 0 nan
nan -1 -2 -2 -2 -1 -1 -2 -2 -1 -2 -1 -0 0 -0 0 1 -0 -2 -1 1 0 0 0 0 0 nan
nan -1 -1 -1 -2 -1 -2 -3 -2 -2 -1 -1 -0 0 0 0 -0 -1 -3 -1 -0 1 1 0 0 -0 nan
nan nan nan nan nan nan nan nan nan nan nan nan nan nan nan nan nan nan nan nan nan nan nan nan nan nan nan
Wind_Speed
27 24 26 25 32 31 31 25 20 25 31 31 32 31 30 28 26 25 21 18 15 15 14 14 15 16 17
32 28 25 25 25 26 28 28 29 25 26 32 33 34 32 32 30 28 24 20 17 16 14 14 14 14 15
33 34 31 29 31 29 30 29 27 28 26 28 34 35 35 34 33 31 26 22 20 17 15 15 14 14 14
31 36 36 33 32 32 28 29 30 27 28 28 31 36 36 36 35 32 28 23 22 19 16 15 14 13 13
26 27 32 32 30 27 27 27 29 29 29 29 29 35 38 38 37 34 30 26 24 21 18 15 15 13 13
26 27 29 33 32 31 32 31 32 24 33 31 30 33 36 41 39 35 32 28 26 23 20 17 16 14 12
27 26 29 26 30 35 33 29 30 31 34 38 29 31 33 38 39 36 33 30 29 25 22 19 17 14 12
24 26 27 29 27 30 36 43 39 31 37 35 33 30 31 36 38 37 36 33 31 27 25 21 18 16 12
23 29 32 35 31 29 28 33 43 40 35 35 36 35 33 36 38 38 38 35 34 29 28 23 20 17 12
32 34 35 34 34 31 31 33 38 38 37 31 34 35 32 37 38 38 39 36 36 32 30 26 22 18 13
35 33 32 29 28 29 26 29 34 40 36 30 36 34 34 17 36 41 40 37 38 36 33 29 24 20 16
34 34 34 33 31 29 27 26 32 40 31 29 38 34 37 39 29 35 40 40 38 37 34 30 26 22 19
37 38 36 33 32 33 29 28 32 33 39 32 32 38 40 42 41 33 31 42 39 40 36 33 27 23 21
33 36 36 34 32 31 30 26 27 32 37 33 31 33 42 38 39 37 34 37 45 45 39 34 29 26 22
32 36 31 29 30 29 28 26 30 33 37 33 31 32 35 38 36 38 35 36 42 45 42 37 33 28 23
30 28 29 32 30 28 29 31 28 37 37 34 32 30 37 41 43 37 39 33 38 40 43 38 35 31 27
37 36 32 34 29 29 32 33 32 30 40 32 34 33 37 43 45 43 40 39 37 39 37 42 37 32 27
Wind_Direction
289 291 277 266 280 292 282 276 277 261 251 247 246 245 247 251 253 258 262 267 272 282 293 304 321 338 338
278 295 284 266 268 276 289 276 268 268 260 247 244 245 246 248 251 255 258 260 265 273 283 295 312 330 333
275 276 295 280 266 276 278 281 285 269 264 253 241 242 245 246 249 251 253 254 258 263 273 284 301 319 327
278 270 273 288 282 280 283 280 284 276 266 264 247 239 240 244 247 249 250 248 253 256 262 274 291 309 319
294 286 274 273 286 292 299 300 283 281 276 267 259 244 237 240 244 245 245 244 247 250 255 264 280 297 311
301 291 287 275 273 285 311 310 302 282 281 274 264 252 242 241 243 245 244 243 243 245 248 255 269 288 300
298 297 295 296 282 279 280 308 304 295 296 279 271 260 246 242 242 241 242 239 240 240 242 247 260 277 288
282 292 290 282 282 277 275 273 285 290 286 279 273 262 255 244 240 238 238 234 236 235 238 242 253 267 276
283 270 274 274 274 282 280 281 272 279 287 282 283 262 247 246 240 236 235 233 233 231 233 236 245 258 263
287 283 281 282 279 275 276 269 263 276 277 277 276 260 245 242 238 233 231 228 232 229 229 231 238 250 251
298 295 297 293 289 282 281 257 264 262 272 274 275 262 234 244 232 230 228 226 227 226 226 227 233 241 243
294 294 296 301 299 294 282 269 256 255 262 266 268 266 248 236 236 230 223 222 225 227 226 226 229 233 236
293 293 296 300 298 294 288 278 262 256 253 258 268 264 256 244 240 237 229 224 223 225 223 224 227 229 231
292 293 297 299 297 294 292 285 284 267 257 259 267 270 253 248 242 239 239 231 223 221 220 221 221 221 222
295 297 298 299 299 301 294 282 280 275 269 258 262 269 256 244 239 236 234 235 230 226 217 217 218 218 217
292 286 283 287 287 288 290 281 282 270 272 266 261 258 242 240 233 233 232 231 235 225 220 219 219 215 213
286 287 288 291 294 295 289 281 277 277 268 268 260 255 241 232 235 231 228 227 233 223 222 220 221 219 214
Height
1531 1529 1526 1526 1529 1532 1532 1531 1531 1532 1532 1533 1536 1538 1538 1540 1541 1542 1544 1544 1545 1544 1543 1541 1540 1537 1533
1523 1526 1525 1520 1521 1523 1525 1525 1525 1525 1526 1526 1529 1531 1532 1534 1534 1536 1540 1540 1541 1541 1539 1538 1537 1534 1531
1515 1521 1518 1516 1515 1513 1517 1518 1517 1516 1518 1518 1520 1523 1525 1527 1528 1530 1533 1535 1536 1536 1536 1536 1534 1531 1528
1514 1515 1512 1511 1510 1509 1506 1509 1510 1509 1510 1512 1511 1513 1516 1519 1521 1523 1527 1530 1531 1532 1531 1532 1531 1528 1526
1507 1505 1504 1506 1504 1504 1501 1500 1500 1502 1501 1505 1504 1504 1507 1512 1514 1517 1521 1524 1526 1527 1527 1527 1528 1525 1523
1499 1501 1502 1502 1499 1501 1497 1493 1492 1490 1497 1495 1497 1495 1499 1503 1507 1511 1514 1517 1520 1522 1522 1522 1523 1522 1520
1499 1498 1495 1493 1494 1493 1492 1493 1490 1489 1490 1489 1489 1488 1491 1496 1499 1503 1507 1511 1513 1516 1516 1517 1518 1518 1516
1494 1492 1491 1487 1490 1486 1484 1485 1483 1481 1487 1482 1482 1481 1485 1487 1490 1495 1499 1503 1506 1510 1511 1511 1514 1514 1513
1486 1485 1484 1481 1484 1479 1479 1479 1475 1474 1478 1476 1474 1475 1478 1479 1482 1484 1492 1495 1498 1503 1504 1505 1508 1509 1509
1477 1475 1474 1472 1472 1472 1472 1473 1473 1469 1470 1472 1471 1469 1469 1469 1472 1476 1483 1487 1491 1495 1498 1500 1502 1504 1505
1468 1464 1463 1462 1463 1463 1465 1466 1460 1460 1462 1463 1465 1461 1462 1464 1462 1469 1475 1480 1483 1487 1491 1494 1497 1499 1501
1460 1456 1455 1453 1454 1453 1452 1451 1452 1453 1454 1454 1458 1455 1456 1461 1460 1462 1467 1472 1476 1480 1485 1488 1491 1494 1496
1451 1448 1448 1445 1444 1443 1443 1442 1441 1440 1444 1445 1448 1450 1451 1452 1453 1454 1461 1465 1469 1473 1477 1480 1486 1490 1491
1444 1442 1440 1437 1436 1436 1433 1432 1431 1430 1434 1433 1436 1441 1440 1441 1444 1450 1453 1456 1459 1463 1469 1475 1480 1484 1486
1438 1435 1433 1430 1428 1427 1426 1425 1424 1422 1424 1423 1428 1431 1430 1432 1435 1440 1445 1449 1453 1456 1462 1468 1473 1479 1480
1431 1430 1427 1424 1422 1422 1421 1418 1415 1415 1416 1414 1418 1420 1421 1424 1428 1432 1438 1440 1445 1451 1456 1463 1468 1472 1475
1422 1421 1419 1416 1414 1414 1412 1410 1407 1406 1408 1405 1409 1409 1412 1414 1418 1422 1427 1431 1438 1444 1451 1457 1461 1469 1471